Pierceville, KS

3:32 AM CST on January 22, 2017 (GMT -0600)
Garden City Regional

Weather History for KGCK - October, 2013

Change the Weather History Date:

Sunday, October 20, 2013

  Actual Average Record
Temperature  
Mean Temperature 49 °F 54 °F  
Max Temperature 65 °F 68 °F 93 °F (2003)
Min Temperature 33 °F 40 °F 20 °F (1982)
Degree Days  
Heating Degree Days 16 11  
Month to date heating degree days 191 167  
Since 1 July heating degree days 209 239  
Cooling Degree Days 0 0  
Month to date cooling degree days 19 18  
Year to date cooling degree days 1591 1296  
Moisture  
Dew Point 35 °F    
Average Humidity 59    
Maximum Humidity 83    
Minimum Humidity 34    
Precipitation  
Precipitation 0.00 in 0.04 in 1.58 in (1953)
Month to date precipitation 1.07 0.91  
Year to date precipitation 13.66 18.03  
Sea Level Pressure  
Sea Level Pressure 29.89 in    
Wind  
Wind Speed 12 mph (NNW)    
Max Wind Speed 28 mph    
Max Gust Speed 33 mph    
Visibility 10 miles    
Events      
T = Trace of Precipitation, MM = Missing Value Source: NWS Daily Summary

Daily Weather History Graph

Daily Weather History Graph

Search for Another Location

Airport or City:

Trip Planner

Search our weather history database for the weather conditions in past years. The results will help you decide how hot, cold, wet, or windy it might be!

Date:

Astronomy

Oct. 20, 2013 Rise Set
Actual Time 7:56 AM CDT 6:58 PM CDT
Civil Twilight 7:29 AM CDT 7:24 PM CDT
Nautical Twilight 6:59 AM CDT 7:55 PM CDT
Astronomical Twilight 6:28 AM CDT 8:25 PM CDT
Moon 8:10 PM CDT (10/20) 9:34 AM CDT (10/20)
Length of Visible Light 11h 54m
Length of Day
11h 01m
Full, 97% of the Moon is Illuminated
Oct 20
Full
Oct 26
Last Quarter
Nov 3
New
Nov 9
First Quarter
Nov 17
Full

Hourly Weather History & Observations

Time (CDT) Temp. Windchill Dew Point Humidity Pressure Visibility Wind Dir Wind Speed Gust Speed Precip Events Conditions
12:54 AM 43.0 °F 37.7 °F 32.0 °F 65% 29.90 in 10.0 mi SW 9.2 mph - N/A   Clear
1:54 AM 39.9 °F 34.5 °F 32.0 °F 73% 29.87 in 10.0 mi SSW 8.1 mph - N/A   Clear
2:54 AM 39.0 °F 34.0 °F 30.9 °F 73% 29.86 in 10.0 mi SSW 6.9 mph - N/A   Clear
3:54 AM 39.9 °F 36.7 °F 30.0 °F 68% 29.83 in 10.0 mi SW 4.6 mph - N/A   Clear
4:54 AM 37.9 °F 33.5 °F 30.0 °F 73% 29.83 in 10.0 mi SW 5.8 mph - N/A   Clear
5:54 AM 35.1 °F 30.1 °F 30.0 °F 82% 29.83 in 10.0 mi SSW 5.8 mph - N/A   Clear
6:54 AM 33.1 °F 30.0 °F 28.9 °F 85% 29.84 in 10.0 mi SSW 3.5 mph - N/A   Clear
7:54 AM 35.1 °F 29.3 °F 28.9 °F 78% 29.83 in 10.0 mi SSW 6.9 mph - N/A   Clear
8:54 AM 37.0 °F 34.5 °F 32.0 °F 82% 29.83 in 10.0 mi South 3.5 mph - N/A   Clear
9:54 AM 46.0 °F 41.0 °F 34.0 °F 63% 29.84 in 10.0 mi North 10.4 mph - N/A   Clear
10:54 AM 54.0 °F - 35.1 °F 49% 29.83 in 10.0 mi North 15.0 mph - N/A   Clear
11:54 AM 60.1 °F - 37.0 °F 42% 29.83 in 10.0 mi NNE 21.9 mph 27.6 mph N/A   Clear
12:54 PM 62.1 °F - 36.0 °F 38% 29.84 in 10.0 mi NNE 23.0 mph - N/A   Clear
1:54 PM 64.0 °F - 36.0 °F 35% 29.84 in 10.0 mi NE 24.2 mph 33.4 mph N/A   Clear
2:54 PM 64.0 °F - 37.0 °F 37% 29.84 in 10.0 mi NNE 21.9 mph 28.8 mph N/A   Clear
3:54 PM 63.0 °F - 37.0 °F 38% 29.86 in 10.0 mi NNE 20.7 mph - N/A   Clear
4:54 PM 62.1 °F - 39.0 °F 43% 29.89 in 10.0 mi NNE 16.1 mph - N/A   Clear
5:54 PM 59.0 °F - 37.0 °F 44% 29.92 in 10.0 mi North 17.3 mph - N/A   Clear
6:54 PM 54.0 °F - 39.0 °F 57% 29.96 in 10.0 mi NNE 12.7 mph - N/A   Clear
7:54 PM 46.9 °F - 39.0 °F 74% 30.01 in 10.0 mi North 6.9 mph - N/A   Clear
8:54 PM 45.0 °F 40.6 °F 39.0 °F 80% 30.03 in 10.0 mi NNW 8.1 mph - N/A   Clear
9:54 PM 45.0 °F 40.6 °F 37.9 °F 76% 30.04 in 10.0 mi NNW 8.1 mph - N/A   Clear
10:54 PM 46.9 °F - 37.9 °F 71% 30.04 in 10.0 mi NW 9.2 mph - N/A   Mostly Cloudy
11:54 PM 48.0 °F - 37.9 °F 68% 30.03 in 10.0 mi North 10.4 mph - N/A   Overcast